Location: Newark
(40.9833°N, 0.0333°W)
Time: 00:24:47
(UTC+00:00)

Hubble Space Telescope - Visible Passes

Search period start: 21 September 2020 00:00
Search period end: 01 October 2020 00:00
Orbit: 536 x 540 km, 28.5° (Epoch: 20 September)

Date Brightness Start Highest point End Pass type
(mag) Time Alt. Az. Time Alt. Az. Time Alt. Az.
27 Sep 3.3 04:20:12 10° S 04:21:04 11° SSE 04:21:55 10° SSE visible
28 Sep 3.2 04:09:44 12° S 04:10:12 12° S 04:11:42 10° SSE visible
29 Sep 3.1 03:59:40 13° SSE 03:59:40 13° SSE 04:01:12 10° SE visible
30 Sep 3.3 03:49:37 12° SSE 03:49:37 12° SSE 03:50:33 10° SE visible
30 Sep 3.1 05:27:00 10° SW 05:28:53 13° S 05:30:47 10° SSE visible
